Jackpot

Texas Poker Multi Jackpot System

Kini Telah hadir Jackpot SUPER ROYAL FLUSH

Kini Telah hadir Jackpot 2000 (khusus table VIP keatas).

Ikutilah global jackpot yang tersedia di system kami, dengan system jackpot terbaru dan pertama di indonesia, anda dapat membeli jackpot dengan harga 100 rupiah saja dan menangkan hadiahnya hingga puluhan juta rupiah.

Jackpot bukanlah suatu keharusan untuk dibeli, namun kami memberikan suatu fitur tambahan untuk member tercinta dari www.nikitapoker.com.

Terdapat tiga pilihan harga jackpot yang bisa anda beli yaitu :100,500,1000 dan 2000(khusus table VIP Keatas) rupiah.

Hadiah dari Multi jackpot system www.nikitapoker.com

  1. full house x 10 harga jackpot yang anda beli.
      (contoh:anda membeli 1000 maka:1000 X10 = 10.000)
  2. four of kind x 250 harga jackpot yang anda beli
      (contoh:anda membeli 1000 maka:1000 X250 = 250.000)
  3. Straight flush x 1200
      (contoh:anda membeli 1000 maka:1000 X1200 = 1.200.000)
  4. Royal flush x 10000 harga jackpot yang anda beli
      (contoh:anda membeli 1000 maka:1000 X10000 = 10.000.000)
  5. SUPER ROYAL FLUSH x 30000 harga jackpot yang anda beli
      (contoh:anda membeli 1000 maka:1000 X30000 = 30.000.000)

Kondisi kartu

  1. full house adalah kondisi kartu dimana kartu anda dan kartu tengah dengan total 7 kartu bisa mendapatkan nilai 5 kartu dengan kombinasi 1 tris(three of kind) dan 1 pair, contoh 3 kartu 10 dan 2 kartu 5
  2. Four of kind adalah kondisi kartu dimana kartu anda dan kartu tengah dengan total 7 kartu bisa mendapatkan nilai 5 kartu dengan kombinasi 4 kartu yang sama jumlah dan 1 kartu apapun juga contoh anda mendapatkan 4 buah kartu angka 3 dan 1 kartu apapun.
  3. Staright flush adalah kondisi kartu dimana kartu anda dan kartu tengah dengan total 7 kartu bisa mendapatkan nilai 5 kartu dengan kombinasi seri / staright dengan kembang yang sama contoh : urutan kartu dari angka 5, 6, 7, 8 , 9 10 dengan kembang yg sama misalnya as hati
  4. Royal flush adalah kondisi kartu dimana kartu anda dan kartu tengah dengan total 7 kartu bisa mendapatkan nilai 5 kartu dengan kombinasi seri / staright dengan kembang yang sama tetapi kartu tersebut haruslah dimulai dari 10. contoh 10, Queen, Jack, King dan aces dengan kembang yang sama
  5. Super Royal flush adalah kondisi kartu dimana Kedua kartu anda digabung dengan 3 kartu pertama meja haruslah royal flush. contoh kartu anda 10,Queen kembang sama dan 3 kartu pertama meja adalah Jack, King dan aces dengan kembang yang sama

Demikian adalah penjelasan dari Multi Jackpot www.nikitapoker.com terima kasih dan selamat bermain salam hoki dari kami

Texas Poker Jackpot Winner

TOP SUPER ROYAL FLUSH
No.TanggalNamaPriceWin
124/06 22:49KEBOK66Super Royal flush6,000,000
224/06 17:20FAI50N9Super Royal flush6,000,000
324/06 14:14ISANASuper Royal flush6,000,000
424/06 10:18SYPHON88Super Royal flush3,000,000
524/06 09:01MONJUBOY9Super Royal flush30,000,000
TOP ROYAL FLUSH
No.TanggalNamaPriceWin
125/06 12:28GR26V0XMLSRoyal flush5,000,000
225/06 11:48MARION_Royal flush1,000,000
325/06 11:33QAQA0505Royal flush2,000,000
425/06 11:27MASOKA20Royal flush10,000,000
525/06 11:15F487A968Royal flush1,000,000
TOP STRAIGHT FLUSH
No.TanggalNamaPriceWin
125/06 13:03OL18_88Straight Flush600,000
225/06 12:55J3D3R_99Straight Flush240,000
325/06 12:52ACCELSI7Straight Flush600,000
425/06 12:52F718A7D9Straight Flush1,200,000
525/06 12:52SIALOHOOStraight Flush1,200,000
LATEST JACKPOT
No.TanggalNamaPriceWin
125/06 13:05ANDRE2626Full House2,000
225/06 13:05HQ1Full House2,000
325/06 13:05AHM07Full House5,000
425/06 13:05BORJUNAULIFull House5,000
525/06 13:05HOKIBAJJAAA88Full House2,000
625/06 13:05ACONKACONKFull House2,000
725/06 13:05DAPODIK77Full House1,000
825/06 13:05YAZER666Full House5,000
925/06 13:05AZKAMAHREZFull House10,000
1025/06 13:05T0P3KFull House1,000
1125/06 13:05APAMO1Full House2,000
1225/06 13:05HOME88315Full House2,000
1325/06 13:05JOMBLOKEMEHFull House2,000
1425/06 13:05RAB1992Full House20,000
1525/06 13:05ANTIRESFull House5,000
1625/06 13:05QO0NJY3DLAFull House2,000
1725/06 13:05SELANGKUNGFull House1,000
1825/06 13:05A50IA379Full House2,000
1925/06 13:05CANDI956Full House2,000
2025/06 13:05BAMJO88Full House5,000
2125/06 13:05ZETTEMPURFull House5,000
2225/06 13:05PRASETIO86Full House5,000
2325/06 13:05NH937Full House2,000
2425/06 13:05FDCMASP9DSFull House10,000
2525/06 13:05DANCEGLO27Four Of A Kind50,000
2625/06 13:05D32ZD6LJQXFull House2,000
2725/06 13:05DALBOZ890Full House10,000
2825/06 13:05MBOKSIKEM3Full House10,000
2925/06 13:05MANCUR84Four Of A Kind25,000
3025/06 13:05A2703DIFull House2,000
3125/06 13:05CSV_168Four Of A Kind25,000
3225/06 13:05SEPAKATT99Full House1,000
3325/06 13:05C1R22Full House5,000
3425/06 13:05SURGO8000Full House5,000
3525/06 13:05UWATERE30Full House2,000
3625/06 13:05HONEYLOVERFull House2,000
3725/06 13:05JAGUAR378Full House2,000
3825/06 13:05BESS345Full House2,000
3925/06 13:05JL8V5L1YN0Four Of A Kind250,000
4025/06 13:05A76C434CFull House2,000
4125/06 13:05LOVEBERDFull House2,000
4225/06 13:05JOKOTOLE55Full House5,000
4325/06 13:05T0P3KFull House1,000
4425/06 13:05CITYDUIT6Full House1,000
4525/06 13:05NETCINDY15Full House2,000
4625/06 13:05RUKUS1387Full House1,000
4725/06 13:05DWBT9972Full House5,000
4825/06 13:05KZT77Full House10,000
4925/06 13:05ANAKJUD50Full House2,000
5025/06 13:05KARSENG77Full House5,000

Domino Multi Jackpot System

Ikutilah global jackpot yang tersedia di system kami, dengan system jackpot terbaru dan pertama di indonesia, anda dapat membeli jackpot dengan harga 100 rupiah saja dan menangkan hadiahnya hingga puluhan juta rupiah.

Jackpot bukanlah suatu keharusan untuk dibeli, namun kami memberikan suatu fitur tambahan untuk member tercinta dari www.nikitapoker.com.

Terdapat tiga pilihan harga jackpot yang bisa anda beli yaitu :100,500 dan 1000 rupiah.

Hadiah dari Multi jackpot system www.nikitapoker.com

  1. Murni Kecil x 50 harga jackpot yang anda beli.
      (contoh:anda membeli 1000 maka:1000 X 50 = 50.000)
  2. Murni Besar x 50 harga jackpot yang anda beli
      (contoh:anda membeli 1000 maka:1000 X 50 = 50.000)
  3. BALAK x 100 harga jackpot yang anda beli
      (contoh:anda membeli 1000 maka:1000 X 100 = 100.000)
  4. ENAM DEWA x 6666 harga jackpot yang anda beli
      (contoh:anda membeli 1000 maka:1000 X 6666 = 6.666.000)

Demikian adalah penjelasan dari Multi Jackpot www.nikitapoker.com terima kasih dan selamat bermain salam hoki dari kami

Domino Jackpot Winner

TOP ENAM DEWA
No.TanggalNamaPriceWin
125/06 11:56MASHARJOmurni enam3,333,000
225/06 10:16RAKAB22murni enam6,666,000
325/06 10:12SASUKEZmurni enam6,666,000
425/06 09:31O0JZKLJ9M1murni enam6,666,000
525/06 02:58MDRSOPYANA945murni enam6,666,000
TOP BALAK
No.TanggalNamaPriceWin
125/06 13:05I0SNT02RPTbalak50,000
225/06 13:03ROMADON14balak100,000
325/06 13:00SINGGAPAIbalak10,000
425/06 12:57PANAD0LLbalak100,000
525/06 12:56NDASTENGbalak10,000
LATEST JACKPOT
No.TanggalNamaPriceWin
125/06 13:05WANUEKmurni kecil50,000
225/06 13:05I0SNT02RPTbalak50,000
325/06 13:05BENANG999murni kecil25,000
425/06 13:04UTOKANDmurni besar50,000
525/06 13:04T4D0015998murni besar50,000
625/06 13:03ANGKASA378murni besar25,000
725/06 13:03ROMADON14balak100,000
825/06 13:02ABCDEFZmurni besar5,000
925/06 13:02JACKPOT09murni kecil50,000
1025/06 13:01RTDANTOlucky9910,000
1125/06 13:00WAWANSS13lucky992,500
1225/06 13:00CHILOENKmurni kecil50,000
1325/06 13:00SINGGAPAIbalak10,000
1425/06 13:00QIUQImurni kecil50,000
1525/06 13:00AXZ438murni kecil50,000
1625/06 12:59THEKING10murni kecil50,000
1725/06 12:59WINDAQ7777murni kecil5,000
1825/06 12:59KHANZA456lucky9925,000
1925/06 12:58D3652A44murni besar5,000
2025/06 12:57DUMBA99murni kecil25,000
2125/06 12:57SYUKURXmurni kecil50,000
2225/06 12:57AMIRNURDmurni besar50,000
2325/06 12:57PANAD0LLbalak100,000
2425/06 12:56IGU15murni besar50,000
2525/06 12:56NDASTENGbalak10,000
2625/06 12:56T4D0015998murni kecil50,000
2725/06 12:56BEDEL12murni besar50,000
2825/06 12:56BOCIL9090murni besar25,000
2925/06 12:56DN4DJERO76murni kecil50,000
3025/06 12:56MACARITA12murni kecil25,000
3125/06 12:55L1AM0AODHNmurni kecil50,000
3225/06 12:54LANI234balak100,000
3325/06 12:53BANKJHON07murni kecil5,000
3425/06 12:53AREGHA28balak100,000
3525/06 12:53DLM123murni kecil50,000
3625/06 12:52M00NYEETmurni kecil50,000
3725/06 12:52TONI998balak100,000
3825/06 12:52ZIO222murni kecil5,000
3925/06 12:52AAARIISSmurni kecil5,000
4025/06 12:52BIEBIE13murni kecil50,000
4125/06 12:50EDC308AFmurni besar50,000
4225/06 12:49CHILOENKmurni besar50,000
4325/06 12:49OBLO493murni besar50,000
4425/06 12:49ZIO222murni kecil5,000
4525/06 12:49H2CLQ345VSbalak100,000
4625/06 12:48KUMIKO944murni kecil50,000
4725/06 12:48LANI234murni besar25,000
4825/06 12:47RUW3TXmurni besar50,000
4925/06 12:47MR_SRImurni besar50,000
5025/06 12:47BOTD069lucky992,500

Ceme Multi Jackpot System

Jackpot dilihat dari gabungan kartu pemain dengan kartu bandar. Bandar harus membeli jackpot sebanyak jumlah player yang sedang duduk. Sebagai contoh bila terdapat 3 pemain duduk bermain, dan bandar memutuskan untuk membeli jackpot Rp 1.000, maka pada periode tersebut bandar akan membeli jackpot sebanyak 3xRp1.000 = Rp3.000.

Jackpot bukanlah suatu keharusan untuk dibeli, namun kami memberikan suatu fitur tambahan untuk member tercinta dari www.nikitapoker.com.

Terdapat tiga pilihan harga jackpot yang bisa anda beli yaitu :100,500 dan 1000 rupiah.

Hadiah dari Multi jackpot system www.nikitapoker.com

  1. Murni Kecil x 50 harga jackpot yang anda beli.
      (contoh:anda membeli 1000 maka:1000 X 50 = 50.000)
  2. Murni Besar x 50 harga jackpot yang anda beli
      (contoh:anda membeli 1000 maka:1000 X 50 = 50.000)
  3. BALAK x 200 harga jackpot yang anda beli
      (contoh:anda membeli 1000 maka:1000 X 200 = 200.000)
  4. ENAM DEWA x 6666 harga jackpot yang anda beli
      (contoh:anda membeli 1000 maka:1000 X 6666 = 6.666.000)

Demikian adalah penjelasan dari Multi Jackpot www.nikitapoker.com terima kasih dan selamat bermain salam hoki dari kami

Ceme Jackpot Winner

TOP ENAM DEWA
No.TanggalNamaPriceWin
125/06 13:02DERI111murni enam3,333,000
225/06 13:00BOTIMANmurni enam666,600
325/06 13:00TEDJO07murni enam3,333,000
425/06 12:36ALPA72murni enam6,666,000
525/06 12:36KERETALEWAmurni enam666,600
TOP BALAK
No.TanggalNamaPriceWin
125/06 13:05ENGGEH225balak20,000
225/06 13:05JELITAAAAbalak200,000
325/06 13:05JOELIU79balak200,000
425/06 13:04RANJOW17balak100,000
525/06 13:03RIOT67balak200,000
LATEST JACKPOT
No.TanggalNamaPriceWin
125/06 13:05ARCHER50murni kecil50,000
225/06 13:05GUDANGG9murni kecil50,000
325/06 13:05ENGGEH225balak20,000
425/06 13:05OIX21murni kecil50,000
525/06 13:05RIODHARMAmurni kecil50,000
625/06 13:05JELITAAAAbalak200,000
725/06 13:05JOELIU79balak200,000
825/06 13:05J4W3L333murni kecil50,000
925/06 13:05EC08murni kecil25,000
1025/06 13:05HENDRIKSUDmurni besar50,000
1125/06 13:05DJAROT766murni kecil50,000
1225/06 13:05WAKA_TOBYmurni kecil50,000
1325/06 13:04YKYK1515murni besar50,000
1425/06 13:04HOKIINDRAGIRImurni besar5,000
1525/06 13:04SERANG340murni besar50,000
1625/06 13:04PAKIDE1murni besar50,000
1725/06 13:04EDUDASmurni besar50,000
1825/06 13:04ITSUmurni besar25,000
1925/06 13:04MOON521murni kecil5,000
2025/06 13:04ASOOOOOY79murni besar25,000
2125/06 13:04RANJOW17balak100,000
2225/06 13:04T4DKUE15murni besar50,000
2325/06 13:04RIFAL407murni besar5,000
2425/06 13:04ABO79murni besar25,000
2525/06 13:04X1NOZmurni kecil50,000
2625/06 13:04BOYTRIOmurni kecil50,000
2725/06 13:04DADANG999murni kecil50,000
2825/06 13:03JELITAAAAmurni besar50,000
2925/06 13:03RIOT67balak200,000
3025/06 13:03ROHIMAH2balak100,000
3125/06 13:03DANYBFCmurni kecil50,000
3225/06 13:03BENDIL8balak20,000
3325/06 13:03TOWEREbalak20,000
3425/06 13:03BBEB4AB2murni besar25,000
3525/06 13:03ZOELIANZ08murni besar50,000
3625/06 13:03JEKIPOmurni kecil50,000
3725/06 13:03CHIEKAL90murni kecil50,000
3825/06 13:03TIO_LSmurni kecil50,000
3925/06 13:03AFRIZA87balak100,000
4025/06 13:03YOGGA888murni kecil50,000
4125/06 13:03GITA8murni kecil25,000
4225/06 13:03B9ENTEN9murni besar25,000
4325/06 13:03JNCK19murni besar25,000
4425/06 13:03C4E021AFmurni besar50,000
4525/06 13:03IYUDZTmurni besar25,000
4625/06 13:03SILEH96murni kecil50,000
4725/06 13:02RELISON1murni besar5,000
4825/06 13:02VALENTROLFmurni besar50,000
4925/06 13:02AAAALTTI11murni kecil50,000
5025/06 13:02AKYAmurni kecil5,000